Weather History for Midland Airpark, TX

Change the Weather History Date:

Friday, November 30, 2012

  Actual Average (KMAF) Record (KMAF)
Temperature  
Mean Temperature 61 °F 47 °F  
Max Temperature 76 °F 61 °F 81 °F (1946)
Min Temperature 46 °F 34 °F 18 °F (1979)
Degree Days  
Heating Degree Days 4 18  
Month to date heating degree days 370  
Since 1 July heating degree days 479  
Growing Degree Days 11 (Base 50)    
Moisture  
Dew Point 43 °F    
Average Humidity 61    
Maximum Humidity 96    
Minimum Humidity 20    
Precipitation  
Precipitation 0.00 in 0.02 in 0.39 in (1931)
Month to date precipitation 0.69  
Year to date precipitation 14.00  
Snow  
Snow 0.00 in - - ()
Month to date snowfall  
Since 1 July snowfall  
Since 1 September snowfall  
Snow Depth -    
Sea Level Pressure  
Sea Level Pressure 30.08 in    
Wind  
Wind Speed 7 mph (SSW)    
Max Wind Speed 13 mph    
Max Gust Speed 21 mph    
Visibility 8 miles    
Events Fog , Rain    
T = Trace of Precipitation, MM = Missing Value Source: NWS Daily Summary

Daily Weather History Graph

Daily Weather History Graph

Search for Another Location

Airport:

Trip Planner

Search our weather history database for the weather conditions in past years. The results will help you decide how hot, cold, wet, or windy it might be!

Date:

Astronomy

Nov. 30, 2012 Rise Set
Actual Time 7:30 AM CST 5:43 PM CST
Civil Twilight 7:04 AM CST 6:10 PM CST
Nautical Twilight 6:33 AM CST 6:40 PM CST
Astronomical Twilight 6:04 AM CST 7:10 PM CST
Moon 7:39 PM CST (11/30) 9:04 AM CST (11/30)
Length of Visible Light 11h 06m
Length of Day
10h 12m
Waning Gibbous, 96% of the Moon is Illuminated
Nov 30
Waning Gibbous
Dec 6
Last Quarter
Dec 13
New
Dec 19
First Quarter
Dec 28
Full

Hourly Weather History & Observations

Time (CST) Temp. Dew Point Humidity Pressure Visibility Wind Dir Wind Speed Gust Speed Precip Events Conditions
12:15 AM 54.9 °F 46.8 °F 74% 30.11 in 10.0 mi SSW 10.4 mph - N/A   Clear
12:35 AM 54.5 °F 47.1 °F 76% 30.11 in 10.0 mi SSW 8.1 mph - N/A   Clear
12:55 AM 54.1 °F 47.1 °F 77% 30.10 in 10.0 mi South 9.2 mph - N/A   Clear
1:15 AM 53.6 °F 47.3 °F 79% 30.10 in 10.0 mi South 6.9 mph - N/A   Clear
1:35 AM 53.2 °F 47.5 °F 81% 30.10 in 10.0 mi South 8.1 mph - N/A   Clear
1:55 AM 52.9 °F 47.7 °F 82% 30.10 in 7.0 mi SSW 8.1 mph - N/A   Clear
2:15 AM 52.5 °F 48.0 °F 85% 30.10 in 7.0 mi SSW 8.1 mph - N/A   Clear
2:35 AM 52.0 °F 48.0 °F 86% 30.10 in 7.0 mi SSW 8.1 mph - N/A   Clear
2:55 AM 51.8 °F 48.2 °F 88% 30.10 in 7.0 mi SSW 9.2 mph - N/A   Clear
3:15 AM 51.4 °F 48.2 °F 89% 30.10 in 5.0 mi SSW 6.9 mph - N/A   Clear
3:35 AM 50.9 °F 48.0 °F 90% 30.10 in 5.0 mi SSW 5.8 mph - N/A   Clear
3:55 AM 50.2 °F 47.5 °F 90% 30.11 in 5.0 mi Calm Calm - N/A   Clear
4:15 AM 49.5 °F 47.1 °F 92% 30.10 in 4.0 mi SSW 5.8 mph - N/A   Clear
4:35 AM 49.1 °F 47.1 °F 93% 30.10 in 4.0 mi South 3.5 mph - N/A   Clear
4:55 AM 48.6 °F 46.6 °F 93% 30.10 in 3.0 mi Calm Calm - N/A   Clear
5:15 AM 48.0 °F 46.2 °F 93% 30.10 in 3.0 mi South 3.5 mph - N/A   Mostly Cloudy
5:35 AM 47.5 °F 45.7 °F 93% 30.10 in 3.0 mi South 4.6 mph - N/A   Overcast
5:55 AM 47.8 °F 46.2 °F 94% 30.12 in 0.2 mi South 4.6 mph - N/A Fog Fog
6:15 AM 47.8 °F 46.4 °F 95% 30.12 in 0.2 mi SSW 4.6 mph - N/A Fog Fog
6:35 AM 47.5 °F 46.0 °F 95% 30.12 in 0.2 mi South 3.5 mph - N/A Rain Light Rain
6:55 AM 47.3 °F 45.9 °F 95% 30.13 in 0.5 mi South 5.8 mph - N/A   Light Drizzle
7:15 AM 46.9 °F 45.5 °F 95% 30.13 in 0.5 mi South 4.6 mph - N/A Fog Fog
7:35 AM 46.6 °F 45.5 °F 96% 30.14 in 0.2 mi SSW 3.5 mph - N/A Fog Fog
7:55 AM 46.6 °F 45.5 °F 96% 30.14 in 0.2 mi SSW 3.5 mph - N/A Fog Fog
8:15 AM 46.9 °F 45.9 °F 96% 30.15 in 0.2 mi Calm Calm - N/A Fog Fog
8:35 AM 48.0 °F 46.9 °F 96% 30.16 in 0.2 mi Calm Calm - N/A Fog Fog
8:55 AM 48.7 °F 47.7 °F 96% 30.15 in 0.2 mi SSW 4.6 mph - N/A Fog Fog
9:15 AM 49.3 °F 48.2 °F 96% 30.16 in 0.2 mi Calm Calm - N/A Fog Fog
9:35 AM 50.0 °F 48.9 °F 96% 30.16 in 2.0 mi South 4.6 mph - N/A   Overcast
9:55 AM 51.1 °F 50.0 °F 96% 30.15 in 7.0 mi SSW 5.8 mph - N/A   Scattered Clouds
10:15 AM 52.3 °F 51.1 °F 95% 30.16 in 10.0 mi SSW 6.9 mph - N/A   Clear
10:35 AM 54.5 °F 51.3 °F 89% 30.15 in 10.0 mi SSW 9.2 mph - N/A   Clear
10:55 AM 59.4 °F 48.7 °F 68% 30.15 in 10.0 mi SSW 8.1 mph - N/A   Clear
11:15 AM 62.6 °F 47.7 °F 58% 30.14 in 10.0 mi SSW 8.1 mph - N/A   Clear
11:35 AM 64.8 °F 46.6 °F 52% 30.14 in 10.0 mi SW 6.9 mph - N/A   Clear
11:55 AM 67.1 °F 45.5 °F 46% 30.12 in 10.0 mi SW 10.4 mph - N/A   Clear
12:15 PM 69.3 °F 42.4 °F 38% 30.10 in 10.0 mi SW 11.5 mph 16.1 mph N/A   Clear
12:35 PM 70.9 °F 40.8 °F 34% 30.09 in 10.0 mi SW 10.4 mph - N/A   Clear
12:55 PM 72.1 °F 39.7 °F 31% 30.08 in 10.0 mi SW 10.4 mph - N/A   Clear
1:15 PM 73.8 °F 38.1 °F 27% 30.07 in 10.0 mi SW 11.5 mph 17.3 mph N/A   Clear
1:35 PM 75.2 °F 36.5 °F 25% 30.07 in 10.0 mi SW 11.5 mph - N/A   Clear
1:55 PM 75.9 °F 34.2 °F 22% 30.06 in 10.0 mi SW 11.5 mph 16.1 mph N/A   Clear
2:15 PM 76.1 °F 34.9 °F 22% 30.05 in 10.0 mi SW 11.5 mph 17.3 mph N/A   Clear
2:35 PM 76.5 °F 34.7 °F 22% 30.04 in 10.0 mi SW 11.5 mph - N/A   Clear
2:55 PM 76.6 °F 34.3 °F 21% 30.03 in 10.0 mi SW 12.7 mph 17.3 mph N/A   Clear
3:15 PM 76.8 °F 34.7 °F 22% 30.03 in 10.0 mi SW 11.5 mph 17.3 mph N/A   Clear
3:35 PM 76.6 °F 34.7 °F 22% 30.03 in 10.0 mi SW 11.5 mph 16.1 mph N/A   Clear
3:55 PM 76.6 °F 34.7 °F 22% 30.03 in 10.0 mi SW 8.1 mph - N/A   Clear
4:15 PM 76.8 °F 33.3 °F 20% 30.03 in 10.0 mi SW 10.4 mph - N/A   Clear
4:35 PM 76.6 °F 32.2 °F 20% 30.03 in 10.0 mi SW 8.1 mph - N/A   Clear
4:55 PM 76.5 °F 32.5 °F 20% 30.03 in 10.0 mi SW 8.1 mph - N/A   Clear
5:15 PM 75.4 °F 33.3 °F 21% 30.03 in 10.0 mi SW 4.6 mph - N/A   Clear
5:35 PM 73.9 °F 33.8 °F 23% 30.03 in 10.0 mi SW 4.6 mph - N/A   Clear
5:55 PM 72.5 °F 33.8 °F 24% 30.03 in 10.0 mi SW 5.8 mph - N/A   Clear
6:15 PM 70.9 °F 33.8 °F 26% 30.03 in 10.0 mi SW 4.6 mph - N/A   Clear
6:35 PM 70.0 °F 34.2 °F 27% 30.03 in 10.0 mi SW 3.5 mph - N/A   Clear
6:55 PM 66.0 °F 34.7 °F 31% 30.03 in 10.0 mi SSW 5.8 mph - N/A   Clear
7:15 PM 67.1 °F 34.3 °F 30% 30.03 in 10.0 mi SSW 6.9 mph - N/A   Clear
7:35 PM 66.0 °F 34.0 °F 30% 30.03 in 10.0 mi SSW 5.8 mph - N/A   Clear
7:55 PM 65.1 °F 34.3 °F 32% 30.03 in 10.0 mi South 8.1 mph - N/A   Clear
8:15 PM 66.0 °F 37.4 °F 35% 30.04 in 10.0 mi South 11.5 mph - N/A   Clear
8:35 PM 64.9 °F 39.9 °F 40% 30.04 in 10.0 mi South 10.4 mph - N/A   Clear
9:15 PM 64.2 °F 44.2 °F 48% 30.04 in 10.0 mi South 12.7 mph - N/A   Clear
9:35 PM 63.9 °F 45.5 °F 51% 30.04 in 10.0 mi South 12.7 mph - N/A   Clear
9:55 PM 63.5 °F 46.4 °F 54% 30.04 in 10.0 mi South 11.5 mph 20.7 mph N/A   Clear
10:15 PM 62.8 °F 47.1 °F 57% 30.04 in 10.0 mi South 12.7 mph - N/A   Clear
10:35 PM 61.9 °F 47.3 °F 59% 30.05 in 10.0 mi SSW 10.4 mph - N/A   Clear
11:15 PM 60.3 °F 47.5 °F 63% 30.06 in 10.0 mi South 9.2 mph - N/A   Clear
11:35 PM 59.5 °F 47.8 °F 65% 30.06 in 10.0 mi SSW 8.1 mph - N/A   Clear
11:55 PM 58.6 °F 47.8 °F 67% 30.06 in 10.0 mi SSW 8.1 mph - N/A   Clear